Date,TemperatureHighF,TemperatureAvgF,TemperatureLowF,DewpointHighF,DewpointAvgF,DewpointLowF,HumidityHigh,HumidityAvg,HumidityLow,PressureMaxIn,PressureMinIn,WindSpeedMaxMPH,WindSpeedAvgMPH,GustSpeedMaxMPH,PrecipitationSumIn
2013-4-1,75.2,64.5,55.4,58.6,51.5,46.3,97,65,40,29.88,29.76,22,7,22,0.00
2013-4-2,74.7,65.0,55.6,59.8,53.5,49.7,85,67,48,29.88,29.56,17,5,17,0.00
2013-4-3,71.2,63.8,58.8,60.6,54.0,49.4,98,72,50,29.68,29.46,25,9,25,0.00
2013-4-4,73.2,63.7,55.6,53.6,50.7,48.7,78,64,47,29.94,29.68,23,7,23,0.00
2013-4-5,74.8,64.5,55.8,58.1,51.2,40.6,77,64,30,29.95,29.79,32,8,32,0.00
2013-4-6,74.8,65.6,55.8,60.4,56.1,50.9,85,72,55,29.81,29.67,27,4,27,0.00
2013-4-7,70.5,64.2,59.9,63.0,57.6,52.3,95,79,68,29.71,29.31,39,12,39,0.00
2013-4-8,62.6,59.0,54.9,55.7,53.2,51.2,91,81,72,29.88,29.40,16,4,16,0.02
2013-4-9,69.6,60.4,51.8,54.8,52.7,49.5,95,77,57,29.99,29.87,21,6,21,0.00
2013-4-10,71.6,62.3,52.5,56.4,53.0,-8.9,91,73,53,29.99,29.89,61,5,61,0.01
2013-4-11,75.7,62.9,53.1,57.4,53.0,49.2,88,72,46,30.03,29.91,16,3,16,0.00
2013-4-12,75.0,64.5,54.3,58.4,53.9,49.5,91,70,54,30.07,29.98,14,4,14,0.00
2013-4-13,78.1,66.6,56.3,58.8,54.4,49.3,83,66,48,30.10,30.04,14,4,14,0.00
2013-4-14,77.7,66.1,52.2,61.6,54.8,35.6,82,68,48,30.10,30.03,52,9,52,0.01
2013-4-15,65.1,59.3,54.7,52.6,49.9,46.5,83,71,55,30.08,30.00,40,11,40,0.02
2013-4-16,65.7,57.3,50.7,51.8,48.2,45.1,92,73,54,30.07,29.05,32,10,32,0.05
2013-4-17,67.8,59.4,53.6,46.2,41.8,36.8,72,54,36,30.09,30.01,41,13,41,0.07
2013-4-18,67.3,57.8,52.3,44.6,39.8,35.8,71,52,37,30.08,30.00,40,14,40,0.05
2013-4-19,64.2,56.7,49.5,51.1,43.7,39.0,82,62,52,30.01,29.93,32,7,32,0.02
2013-4-20,63.5,59.8,54.7,50.8,48.8,46.9,75,67,62,30.00,29.97,25,11,25,0.00
2013-4-21,72.5,64.9,57.7,54.1,50.1,46.8,71,60,41,29.99,29.93,17,4,17,0.00
2013-4-22,73.8,61.4,55.2,50.3,47.5,45.0,73,61,43,30.07,29.97,18,6,18,0.00
2013-4-23,74.1,64.2,54.5,56.3,51.1,45.3,75,63,51,30.21,30.06,28,7,28,0.00
2013-4-24,78.1,70.0,63.1,57.0,50.6,46.3,69,51,34,30.30,30.24,21,8,21,0.00
2013-4-25,83.1,76.6,67.1,57.5,53.7,20.4,53,45,10,30.27,30.15,24,8,24,0.00
2013-4-26,86.9,74.1,61.0,55.4,50.1,45.6,62,45,28,30.16,29.99,18,5,18,0.00
2013-4-27,83.3,72.7,62.4,54.2,51.4,47.3,64,48,35,29.99,29.90,17,5,17,0.00
2013-4-28,82.9,71.2,60.1,60.1,52.4,47.2,80,53,33,30.05,29.93,18,4,18,0.00
2013-4-29,88.2,74.2,61.3,60.0,51.9,44.4,57,46,33,30.11,30.03,16,3,16,0.00
2013-4-30,88.0,77.6,65.3,60.4,53.4,46.5,53,43,35,30.10,30.02,28,10,28,0.00